Location: Campillo
(40.8621°N, 4.2488°W)
Time: 23:55:02
(UTC+00:00)

USA 308 - Pass Details

Date: 28 September 2021
Orbit: 566 x 573 km, 54.0° (Epoch: 23 September)

Event Time Altitude Azimuth Distance (km) Brightness Sun altitude
Rises 19:25:27 0° 314° (NW) 2,771 7.4 -16.2°
Reaches altitude 10° 19:28:01 10° 328° (NNW) 1,873 6.1 -16.7°
Maximum altitude 19:31:35 25° 25° (NNE) 1,157 4.3 -17.3°
Enters shadow 19:32:44 23° 50° (NE) 1,247 4.3 -17.5°
